Location: Downe
(51.3167°N, 0.0500°E)
Time: 05:26:11
(UTC+00:00)

Okean O Rocket - Pass Details

Date: 17 November 2019
Orbit: 622 x 645 km, 98.2° (Epoch: 08 December)

Event Time Altitude Azimuth Distance (km) Brightness Sun altitude
Rises 05:38:37 0° 15° (NNE) 2,919 5.1 -15.6°
Reaches altitude 10° 05:40:50 10° 18° (NNE) 2,006 4.3 -15.2°
Maximum altitude 05:45:11 75° 103° (ESE) 651 1.8 -14.6°
Drops below altitude 10° 05:49:31 10° 190° (S) 1,991 4.2 -13.9°
Sets 05:51:42 0° 192° (SSW) 2,894 5.0 -13.6°
